TimeCDT,TemperatureF,Dew PointF,Humidity,Sea Level PressureIn,VisibilityMPH,Wind Direction,Wind SpeedMPH,Gust SpeedMPH,PrecipitationIn,Events,Conditions,WindDirDegrees,DateUTC
12:54 AM,48.9,39.0,69,30.31,10.0,NE,4.6,-,N/A,,Clear,50,2012-09-15 05:54:00
1:54 AM,48.0,39.9,74,30.30,10.0,ENE,8.1,-,N/A,,Clear,60,2012-09-15 06:54:00
2:54 AM,46.0,39.9,79,30.30,10.0,ENE,4.6,-,N/A,,Clear,70,2012-09-15 07:54:00
3:54 AM,46.9,42.1,83,30.29,10.0,ENE,6.9,-,N/A,,Clear,70,2012-09-15 08:54:00
4:54 AM,46.0,43.0,89,30.30,10.0,East,3.5,-,N/A,,Clear,90,2012-09-15 09:54:00
5:54 AM,44.1,42.1,93,30.30,10.0,East,4.6,-,N/A,,Clear,80,2012-09-15 10:54:00
6:54 AM,44.1,42.1,93,30.31,10.0,East,5.8,-,N/A,,Clear,80,2012-09-15 11:54:00
7:54 AM,48.0,44.1,86,30.30,10.0,ESE,5.8,-,N/A,,Clear,110,2012-09-15 12:54:00
8:54 AM,53.1,46.9,80,30.28,10.0,ESE,5.8,-,N/A,,Clear,110,2012-09-15 13:54:00
9:54 AM,59.0,46.9,64,30.27,10.0,SSE,6.9,-,N/A,,Clear,160,2012-09-15 14:54:00
10:54 AM,64.0,48.0,56,30.24,10.0,SSW,4.6,-,N/A,,Clear,200,2012-09-15 15:54:00
11:54 AM,69.1,46.0,44,30.21,10.0,SW,8.1,-,N/A,,Clear,230,2012-09-15 16:54:00
12:54 PM,73.0,46.0,38,30.18,10.0,SW,9.2,-,N/A,,Clear,230,2012-09-15 17:54:00
1:54 PM,75.9,42.1,30,30.15,10.0,SW,10.4,18.4,N/A,,Clear,230,2012-09-15 18:54:00
2:54 PM,78.1,43.0,29,30.12,10.0,SW,18.4,24.2,N/A,,Clear,220,2012-09-15 19:54:00
3:54 PM,78.1,44.1,30,30.10,10.0,SW,13.8,20.7,N/A,,Clear,220,2012-09-15 20:54:00
4:54 PM,77.0,44.1,31,30.09,10.0,SW,15.0,21.9,N/A,,Clear,220,2012-09-15 21:54:00
5:54 PM,73.9,43.0,33,30.09,10.0,SW,11.5,18.4,N/A,,Clear,230,2012-09-15 22:54:00
6:54 PM,69.1,44.1,40,30.08,10.0,SW,9.2,-,N/A,,Clear,220,2012-09-15 23:54:00
7:54 PM,64.9,44.1,47,30.08,10.0,SSW,5.8,-,N/A,,Clear,210,2012-09-16 00:54:00
8:54 PM,62.1,44.1,52,30.08,10.0,SSW,5.8,-,N/A,,Clear,210,2012-09-16 01:54:00
9:54 PM,60.1,45.0,57,30.07,10.0,SSW,6.9,-,N/A,,Clear,210,2012-09-16 02:54:00
10:54 PM,61.0,45.0,56,30.06,10.0,SSW,8.1,-,N/A,,Clear,200,2012-09-16 03:54:00
11:54 PM,57.0,45.0,64,30.05,10.0,SSW,6.9,-,N/A,,Clear,210,2012-09-16 04:54:00